Weather History for Slidell, LA

Change the Weather History Date:

Monday, April 8, 2013

  Actual Average (KNEW) Record (KNEW)
Temperature  
Mean Temperature 68 °F 67 °F  
Max Temperature 81 °F 77 °F 88 °F (1948)
Min Temperature 55 °F 58 °F 32 °F (1971)
Degree Days  
Heating Degree Days 0 2  
Month to date heating degree days 16  
Since 1 July heating degree days 1261  
Cooling Degree Days 2 4  
Month to date cooling degree days 29  
Year to date cooling degree days 129  
Growing Degree Days 18 (Base 50)    
Moisture  
Dew Point 63 °F    
Average Humidity 87    
Maximum Humidity 100    
Minimum Humidity 58    
Precipitation  
Precipitation 0.00 in 0.15 in 2.21 in (2003)
Month to date precipitation 1.19  
Year to date precipitation 16.19  
Snow  
Snow 0.00 in - - ()
Month to date snowfall  
Since 1 July snowfall  
Snow Depth -    
Sea Level Pressure  
Sea Level Pressure 29.99 in    
Wind  
Wind Speed 4 mph (SE)    
Max Wind Speed 17 mph    
Max Gust Speed 24 mph    
Visibility 8 miles    
Events Fog    
T = Trace of Precipitation, MM = Missing Value Source: NWS Daily Summary

Daily Weather History Graph

Daily Weather History Graph

Search for Another Location

Airport:

Trip Planner

Search our weather history database for the weather conditions in past years. The results will help you decide how hot, cold, wet, or windy it might be!

Date:

Astronomy

Apr. 08, 2013 Rise Set
Actual Time 6:39 AM CDT 7:22 PM CDT
Civil Twilight 6:15 AM CDT 7:47 PM CDT
Nautical Twilight 5:46 AM CDT 8:15 PM CDT
Astronomical Twilight 5:17 AM CDT 8:45 PM CDT
Moon 5:23 AM CDT (4/8) 6:00 PM CDT (4/8)
Length of Visible Light 13h 31m
Length of Day
12h 42m
Waning Crescent, 3% of the Moon is Illuminated
Apr 8
Waning Crescent
Apr 10
New
Apr 18
First Quarter
Apr 25
Full
May 2
Last Quarter

Hourly Weather History & Observations

Time (CDT) Temp. Heat Index Dew Point Humidity Pressure Visibility Wind Dir Wind Speed Gust Speed Precip Events Conditions
12:53 AM 59.0 °F - 55.9 °F 90% 30.00 in 10.0 mi Calm Calm - N/A   Clear
1:53 AM 57.0 °F - 55.9 °F 96% 29.99 in 9.0 mi Calm Calm - N/A   Clear
2:14 AM 57.2 °F - 55.4 °F 94% 29.98 in 2.5 mi Calm Calm - N/A   Partly Cloudy
2:30 AM 57.2 °F - 55.4 °F 94% 29.98 in 5.0 mi Calm Calm - N/A   Partly Cloudy
2:53 AM 55.9 °F - 55.0 °F 97% 29.97 in 10.0 mi Calm Calm - N/A   Partly Cloudy
3:37 AM 55.4 °F - 53.6 °F 94% 29.96 in 10.0 mi Calm Calm - N/A   Mostly Cloudy
3:45 AM 55.4 °F - 55.4 °F 100% 29.96 in 1.2 mi Calm Calm - N/A   Mostly Cloudy
3:53 AM 55.0 °F - 55.0 °F 100% 29.96 in 0.5 mi Calm Calm - N/A Fog Fog
4:53 AM 57.0 °F - 57.0 °F 100% 29.97 in 0.5 mi Calm Calm - N/A Fog Fog
5:53 AM 57.0 °F - 57.0 °F 100% 29.99 in 0.5 mi Calm Calm - N/A Fog Fog
6:53 AM 57.9 °F - 57.9 °F 100% 29.99 in 0.2 mi Calm Calm - N/A Fog Fog
7:43 AM 62.6 °F - 62.6 °F 100% 30.00 in 2.0 mi Calm Calm - N/A   Mostly Cloudy
7:51 AM 62.6 °F - 62.6 °F 100% 30.00 in 5.0 mi Calm Calm - N/A   Mostly Cloudy
7:53 AM 64.0 °F - 64.0 °F 100% 30.00 in 5.0 mi Calm Calm - N/A   Scattered Clouds
8:53 AM 69.1 °F - 66.9 °F 93% 30.01 in 10.0 mi SE 3.5 mph - N/A   Mostly Cloudy
9:53 AM 73.9 °F - 66.0 °F 76% 30.01 in 10.0 mi SSE 9.2 mph 18.4 mph N/A   Scattered Clouds
10:53 AM 77.0 °F - 66.0 °F 69% 30.03 in 10.0 mi SSE 17.3 mph 23.0 mph N/A   Partly Cloudy
11:53 AM 77.0 °F - 63.0 °F 62% 30.04 in 10.0 mi South 17.3 mph - N/A   Mostly Cloudy
12:53 PM 78.1 °F - 63.0 °F 60% 30.03 in 10.0 mi SSE 17.3 mph 23.0 mph N/A   Mostly Cloudy
1:53 PM 80.1 °F 81.7 °F 64.0 °F 58% 30.01 in 10.0 mi South 15.0 mph - N/A   Mostly Cloudy
2:53 PM 80.1 °F 81.9 °F 64.9 °F 60% 30.00 in 10.0 mi SSE 13.8 mph 19.6 mph N/A   Overcast
3:53 PM 78.1 °F - 66.0 °F 66% 29.97 in 10.0 mi SE 16.1 mph 24.2 mph N/A   Overcast
4:53 PM 77.0 °F - 66.0 °F 69% 29.98 in 10.0 mi SSE 12.7 mph 21.9 mph N/A   Mostly Cloudy
5:53 PM 75.9 °F - 66.9 °F 74% 29.99 in 10.0 mi SSE 9.2 mph - N/A   Scattered Clouds
6:53 PM 73.9 °F - 68.0 °F 82% 29.99 in 10.0 mi SE 10.4 mph - N/A   Partly Cloudy
7:34 PM 73.4 °F - 69.8 °F 88% 29.98 in 10.0 mi SE 8.1 mph - N/A   Mostly Cloudy
7:53 PM 73.0 °F - 69.1 °F 87% 29.99 in 10.0 mi SE 6.9 mph - N/A   Overcast
8:22 PM 71.6 °F - 69.8 °F 94% 29.98 in 10.0 mi SE 9.2 mph - N/A   Overcast
8:53 PM 72.0 °F - 69.1 °F 91% 29.97 in 10.0 mi SE 11.5 mph 18.4 mph N/A   Mostly Cloudy
9:53 PM 72.0 °F - 69.1 °F 91% 29.98 in 10.0 mi SE 11.5 mph 18.4 mph N/A   Partly Cloudy
10:53 PM 71.1 °F - 69.1 °F 93% 29.97 in 10.0 mi SE 11.5 mph - N/A   Partly Cloudy
11:24 PM 71.6 °F - 69.8 °F 94% 29.98 in 10.0 mi SE 11.5 mph 18.4 mph N/A   Mostly Cloudy
11:32 PM 71.6 °F - 69.8 °F 94% 29.98 in 10.0 mi SE 6.9 mph 17.3 mph N/A   Mostly Cloudy
11:53 PM 72.0 °F - 69.1 °F 91% 29.98 in 10.0 mi SE 8.1 mph - N/A   Overcast